Regional Weather Roundup
Issued by NWS

Home | Current Version | Previous Version | Text Only | Print | Product List | Glossary Off
Versions: 1 2 3 4 5 6 7 8 9 10 11 12 13 14 15 16 17 18 19 20 21 22 23 24 25 26 27 28 29 30 31 32 33 34 35 36 37 38 39 40 41 42 43 44 45 46 47 48 49 50

000
ASUS43 KLOT 102306
RWRIL

ILLINOIS REGIONAL WEATHER ROUNDUP
NATIONAL WEATHER SERVICE CHICAGO/ROMEOVILLE IL
600 PM CDT THU JUL 10 2014

NOTE: "FAIR" INDICATES FEW OR NO CLOUDS BELOW 12,000 FEET WITH NO
SIGNIFICANT WEATHER AND/OR OBSTRUCTIONS TO VISIBILITY.

* THESE STATIONS ARE NOT UNDER NWS QUALITY CONTROL. THEY ALSO MAY NOT
  REPORT WEATHER SUCH AS PRECIPITATION OR FOG.

ILZ001-002-007-009-015-016-024-110000-
NORTHWEST ILLINOIS

CITY           SKY/WX    TMP DP  RH WIND       PRES   REMARKS
MOLINE         SUNNY     80  59  48 S6        30.09F HX  81
STERLING*      PTSUNNY   81  61  50 S7        30.12S HX  81
SAVANNA*       SUNNY     81  58  45 SE7       30.10F HX  81
$$

ILZ003-004-008-010-011-017-018-110000-
NORTH CENTRAL ILLINOIS

CITY           SKY/WX    TMP DP  RH WIND       PRES   REMARKS
ROCKFORD       MOSUNNY   78  57  48 S8        30.13F
FREEPORT*      PTSUNNY   76  58  54 SE6       30.14S
ROCHELLE*      MOSUNNY   76  59  54 SE5       30.13S
DE KALB*       SUNNY     75  54  49 SE3       30.14F
PERU*          SUNNY     78  56  46 SE6       30.13S
$$

ILZ005-006-012>014-019>023-110000-
NORTHEAST ILLINOIS

CITY           SKY/WX    TMP DP  RH WIND       PRES   REMARKS
CHICAGO-OHARE  MOSUNNY   75  52  44 E10       30.14S
CHICAGO-MIDWAY MOSUNNY   75  51  43 E8        30.15R
AURORA         SUNNY     80  54  40 SW5       30.13F HX  80
LANSING*       SUNNY     73  46  37 NE8       30.15F
JOLIET*        SUNNY     77  54  44 E9        30.14S
WAUKEGAN       SUNNY     69  55  60 E9        30.14F
DUPAGE AIRPORT MOSUNNY   75  56  51 E8        30.13S
KANKAKEE*      MOSUNNY   77  57  50 E7        30.14S
WHEELING       SUNNY     74  53  48 E8        30.16S
MORRIS*        PTSUNNY   78  57  48 S3        30.13S
ROMEOVILLE*    SUNNY     76  55  48 E9        30.14S
NORTHERLY ISL    N/A     70  56  61 E8          N/A
$$

LMZ740>746-110000-
SOUTHERN LAKE MICHIGAN

STATION/POSITION SKY/WX   TEMP    WIND        PRES    VSBY  WAVE
                          AIR SEA DIR/SP/G                  HT/PER
                          (F)     (DEG/KT/KT) (MB)    (MI)  (FT/S)
SOUTHERN BUOY              64 63  130/  2/  2 1021.5F         0
WAUKEGAN HARBOR            69     140/  9/ 10 1022.0F
HARRISON CRIB              68     100/ 10/ 12   N/A
BURNHAM HARBOR             70      90/  7/ 11   N/A
CALUMET HARBOR             70      70/  9/ 11 1021.8F
MICHIGAN CITY              69      10/  9/ 10   N/A
$$

ILZ025>027-034>036-040-047-049-050-058-095>099-110000-
WEST-CENTRAL ILLINOIS

CITY           SKY/WX    TMP DP  RH WIND       PRES   REMARKS
QUINCY         MOSUNNY   80  54  40 SE12      30.10S HX  80
GALESBURG*     SUNNY     81  60  48 S6        30.11F HX  82
MACOMB*        SUNNY     79  59  50 SE9       30.13S HX  80
JACKSONVILLE*  SUNNY     80  58  47 E6        30.13S HX  81
PITTSFIELD*    SUNNY     80  58  45 E5        30.12S HX  81
$$

ILZ028>032-037-038-041>044-048-051>054-059>061-110000-
CENTRAL ILLINOIS

CITY           SKY/WX    TMP DP  RH WIND       PRES   REMARKS
PONTIAC        MOSUNNY   79  57  47 CALM      30.14S HX  80
BLOOMINGTON    MOSUNNY   78  55  44 E8        30.15F
DECATUR        MOSUNNY   79  55  43 E9        30.13F
PEORIA         CLOUDY    78  58  49 SE5       30.12F
LACON*         MOSUNNY   78  55  44 SE6       30.11F
LINCOLN*       SUNNY     80  55  41 E7        30.10S HX  80
SPRINGFIELD    SUNNY     80  55  42 E5        30.12F HX  80
TAYLORVILLE    MOSUNNY   77  54  44 E7        30.12S
$$

ILZ033-039-045-046-055>057-062-063-110000-
EAST-CENTRAL ILLINOIS

CITY           SKY/WX    TMP DP  RH WIND       PRES   REMARKS
CHAMPAIGN      MOSUNNY   78  54  43 E8        30.14S
RANTOUL*       SUNNY     78  53  41 E7        30.15S
MATTOON        SUNNY     78  52  40 NE6       30.11F
PARIS*         SUNNY     78  55  44 CALM      30.13S
$$

ILZ079-100>102-110000-
SOUTHWEST ILLINOIS

CITY           SKY/WX    TMP DP  RH WIND       PRES   REMARKS
ALTON          MOSUNNY   81  57  44 E7        30.10F HX  81
BELLEVILLE     MOSUNNY   84  54  35 NE5       30.08F HX  82
CAHOKIA*       MOSUNNY   83  57  41 E8        30.08F HX  82
SPARTA*        PTSUNNY   81  55  41 E5        30.09F HX  80
$$

ILZ064>066-069>071-074>076-080>082-084>086-088>090-092>094-110000-
SOUTH-CENTRAL ILLINOIS

CITY           SKY/WX    TMP DP  RH WIND       PRES   REMARKS
CARBONDALE     CLOUDY    82  61  48 CALM      30.08S HX  83
CAIRO*         MOSUNNY   85  63  47 NE5       30.06S HX  86
MARION         PTSUNNY   81  64  57 NE6       30.09S HX  82
MT. VERNON     MOSUNNY   81  55  41 CALM      30.09F HX  80
CENTRALIA*     SUNNY     88  51  28 N5        30.09F HX  85
SALEM*         SUNNY     83  55  37 N5        30.10S HX  82
METROPOLIS*    MOSUNNY   82  60  47 N3        30.06S HX  82
$$

ILZ067-068-072-073-078-083-087-091-110000-
SOUTHEAST ILLINOIS

CITY           SKY/WX    TMP DP  RH WIND       PRES   REMARKS
FLORA*         SUNNY     81  53  37 NE6       30.10R HX  80
HARRISBURG*    PTSUNNY   81  61  51 CALM      30.09S HX  82
ROBINSON*      SUNNY     82  56  39 NE7       30.11S HX  82
CARMI*         MOSUNNY   82  63  51 CALM      30.07S HX  83
$$

ABBREVIATIONS USED IN REMARKS
   TC - TEMPERATURE IN CELSIUS
  WCI - WIND CHILL INDEX
   HX - HEAT INDEX
  VSB - VISIBILITY
$$




USA.gov is the U.S. government's official web portal to all federal, state and local government web resources and services.